EHI
0 0 0 0 0 0 0 0 0 0 0 0 0 0 0 0 0 0 0 0 0 0 0 0 0 0 0 0 0 0 0 0 0 0 0 0 0 0 0 0 0 0 0 0
0 0 0 0 0 0 0 0 0 0 0 0 0 0 0 0 0 0 0 0 0 0 0 0 0 0 0 0 0 0 0 0 0 0 0 0 0 0 0 0 0 0 0 0
0 0 0 0 0 0 0 0 0 0 0 0 0 0 0 0 0 0 0 0 0 0 0 0 0 0 0 0 0 0 0 0 0 0 0 0 0 0 0 0 0 0 0 0
0 0 0 0 0 0 0 0 0 0 0 0 0 0 0 0 0 0 0 0 0 0 0 0 0 0 0 0 0 0 0 0 0 0 0 0 0 0 0 0 0 0 0 0
0 0 0 0 0 0 0 0 0 0 0 0 0 0 0 0 0 0 0 0 0 0 0 0 0 0 0 0 0 0 0 0 0 0 0 0 0 0 0 0 0 0 0 0
0 0 0 0 0 0 0 0 0 0 0 0 0 0 0 0 0 0 0 0 0 0 0 0 0 0 0 0 0 0 0 0 0 0 0 0 0 0 0 0 0 0 0 0
0 0 0 0 0 0 0 0 0 0 0 0 0 0 0 0 0 0 0 0 0 0 0 0 0 0 0 0 0 0 0 0 0 0 0 0 0 0 0 0 0 0 0 0
0 0 0 0 0 0 0 0 0 0 0 0 0 0 0 0 0 0 0 0 0 0 0 0 0 0 0 0 0 0 0 0 0 0 0 0 0 0 0 0 0 0 0 0
0 0 0 0 0 0 0 0 0 0 0 0 0 0 0 0 0 0 0 0 0 0 0 0 0 0 0 0 0 0 0 0 0 0 0 0 0 0 0 0 0 0 0 0
0 0 0 0 0 0 0 0 0 0 0 0 0 0 0 0 0 0 0 0 0 0 0 0 0 0 0 0 0 0 0 0 0 0 0 0 0 0 0 0 0 0 0 0
0 0 0 0 0 0 0 0 0 0 0 0 0 0 0 0 0 0 0 0 0 0 0 0 0 0 0 0 0 0 0 0 0 0 0 0 0 0 0 0 0 0 0 0
0 0 0 0 0 0 0 0 0 0 0 0 0 0 0 0 0 0 0 0 0 0 0 0 0 0 0 0 0 0 0 0 0 0 0 0 0 0 0 0 0 0 0 0
0 0 0 0 0 0 0 0 0 0 0 0 0 0 0 0 0 0 0 0 0 0 0 0 0 0 0 0 0 0 0 0 0 0 0 0 0 0 0 0 0 0 0 0
0 0 0 0 0 0 0 0 0 0 0 0 0 0 0 0 0 0 0 0 0 0 0 0 0 0 0 0 0 0 0 0 0 0 0 0 0 0 0 0 0 0 0 0
0 0 0 0 0 0 0 0 0 0 0 0 0 0 0 0 0 0 0 0 0 0 0 0 0 0 0 0 0 0 0 0 0 0 0 0 0 0 0 0 0 0 0 0
0 0 0 0 0 0 0 0 0 0 0 0 0 0 0 0 0 0 0 0 0 0 0 0 0 0 0 0 0 0 0 0 0 0 0 0 0 0 0 0 0 0 0 0
0 0 0 0 0 0 0 0 0 0 0 0 0 0 0 0 0 0 0 0 0 0 0 0 0 0 0 0 0 0 0 0 0 0 0 0 0 0 0 0 0 0 0 0
0 0 0 0 0 0 0 0 0 0 0 0 0 0 0 0 0 0 0 0 0 0 0 0 0 0 0 0 0 0 0 0 0 0 0 0 0 0 0 0 0 0 0 0
0 0 0 0 0 0 0 0 0 0 0 0 0 0 0 0 0 0 0 0 0 0 0 0 0 0 0 0 0 0 0 0 0 0 0 0 0 0 0 0 0 0 0 0
0 0 0 0 0 0 0 0 0 0 0 0 0 0 0 0 0 0 0 0 0 0 0 0 0 0 0 0 0 0 0 0 0 0 0 0 0 0 0 0 0 0 0 0
0 0 0 0 0 0 0 0 0 0 0 0 0 0 0 0 0 0 0 0 0 0 0 0 0 0 0 0 0 0 0 0 0 0 0 0 0 0 0 0 0 0 0 0
0 0 0 0 0 0 0 0 0 0 0 0 0 0 0 0 0 0 0 0 0 0 0 0 0 0 0 0 0 0 0 0 0 0 0 0 0 0 0 0 0 0 0 0
0 0 0 0 0 0 0 0 0 0 0 0 0 0 0 0 0 0 0 0 0 0 0 0 0 0 0 0 0 0 0 0 0 0 0 0 0 0 0 0 0 0 0 0
0 0 0 0 0 0 0 0 0 0 0 0 0 0 0 0 0 0 0 0 0 0 0 0 0 0 0 0 0 0 0 0 0 0 0 0 0 0 0 0 0 0 0 0
0 0 0 0 0 0 0 0 0 0 0 0 0 0 0 0 0 0 0 0 0 0 0 0 0 0 0 0 0 0 0 0 0 0 0 0 0 0 0 0 0 0 0 0
0 0 0 0 0 0 0 0 0 0 0 0 0 0 0 0 0 0 0 0 0 0 0 0 0 0 0 0 0 0 0 0 0 0 0 0 0 0 0 0 0 0 0 0
Wind_Speed
6 7 4 1 1 1 2 2 2 1 4 6 7 6 6 8 8 8 8 7 7 5 4 4 2 1 3 4 5 5 6 7 6 6 6 7 7 7 5 5 8 10 10 10
7 4 2 1 1 1 2 2 1 0 3 4 3 6 4 7 9 9 10 9 7 5 4 4 3 1 3 5 5 6 7 7 7 6 5 5 7 5 5 6 7 9 10 11
4 1 2 3 4 3 1 1 2 2 1 1 3 6 3 3 4 5 7 6 6 7 7 4 3 2 3 4 5 7 7 8 7 8 6 8 5 4 5 7 5 7 11 11
3 2 2 3 3 2 0 0 2 3 1 3 1 7 5 4 4 6 8 7 7 5 5 3 2 2 3 4 5 6 6 7 7 7 8 9 9 9 9 7 8 10 10 11
1 2 3 2 1 0 1 1 2 2 2 2 0 2 8 2 6 9 9 8 7 6 5 4 2 1 3 4 5 5 6 6 7 7 8 8 7 7 8 8 9 9 8 9
1 0 1 0 0 1 1 3 4 4 3 3 3 4 9 6 8 6 8 8 8 7 5 3 2 2 3 4 4 5 6 7 7 8 8 8 9 10 12 12 10 9 8 8
3 1 1 1 1 3 4 4 5 6 4 5 2 3 11 4 5 5 8 9 8 7 5 3 1 2 4 5 5 6 7 8 8 8 8 9 9 8 10 12 11 12 10 10
2 4 2 2 1 1 1 3 4 2 5 7 2 7 8 1 0 1 5 7 8 7 5 3 1 1 3 5 6 7 7 8 8 8 8 8 8 7 8 10 11 11 10 11
1 3 1 1 1 1 2 2 3 4 1 4 7 9 7 3 1 2 5 7 7 7 6 4 1 1 2 4 5 6 7 8 8 9 9 8 8 9 10 11 10 9 10 12
2 3 3 1 1 3 2 6 4 3 2 6 8 7 6 6 8 7 7 8 7 7 6 4 2 1 2 3 4 6 6 7 8 8 8 10 9 10 10 10 11 12 13 14
1 1 5 2 2 3 3 3 4 3 3 3 6 11 6 6 8 11 12 10 9 8 6 4 2 1 3 4 5 6 6 7 7 8 8 9 9 10 10 10 11 12 12 14
2 3 4 4 0 1 3 4 6 3 3 4 4 13 1 3 5 8 9 9 8 8 6 4 2 1 3 4 5 6 6 6 7 7 8 9 9 10 10 11 11 12 13 14
4 3 4 5 3 1 1 3 4 4 4 4 5 13 1 0 1 4 8 9 8 8 6 4 1 1 3 4 5 6 6 6 6 7 7 8 9 10 10 11 11 12 12 13
5 3 4 5 5 2 4 4 5 6 4 6 12 15 9 5 6 6 7 9 8 7 6 4 2 2 3 4 5 6 6 6 6 7 7 8 9 10 10 10 11 11 12 12
4 2 4 7 5 4 6 8 8 10 9 10 12 11 15 7 10 10 10 9 8 7 6 6 4 3 3 4 5 5 6 6 6 7 7 8 9 9 9 10 10 11 11 13
3 1 2 6 2 3 7 10 9 10 8 10 10 18 9 2 3 8 10 12 10 8 8 6 5 4 4 4 5 5 5 6 6 6 7 8 9 9 9 9 10 10 11 11
3 2 1 5 5 5 10 9 10 8 10 10 11 12 2 3 7 12 14 13 11 9 8 7 6 5 4 4 4 4 5 5 5 6 7 8 8 9 9 10 10 10 10 10
6 4 2 3 7 6 8 1 7 7 10 11 11 9 6 6 4 5 8 12 10 9 9 7 6 5 4 3 3 4 4 4 5 6 6 7 7 8 9 8 9 9 7 8
3 5 3 1 3 12 11 3 6 5 11 9 12 11 3 4 2 3 7 9 10 9 8 7 6 5 4 3 3 3 4 4 5 6 7 7 7 7 8 8 8 7 7 7
4 4 5 4 2 9 8 2 4 2 9 7 9 7 8 9 3 7 11 10 9 8 7 6 5 5 4 3 2 2 3 4 5 6 7 7 6 7 7 7 7 6 7 7
3 3 4 5 7 14 8 5 5 3 10 4 8 10 13 14 8 3 12 10 9 8 7 7 6 5 5 3 2 2 3 4 5 6 6 6 6 7 7 6 6 7 8 8
10 8 8 6 6 15 7 10 12 14 3 5 7 9 12 9 4 7 11 12 12 10 8 7 6 6 4 3 3 3 4 5 5 5 6 7 7 7 7 6 7 7 7 7
10 12 10 14 14 7 12 14 11 5 6 7 7 8 11 9 8 10 10 11 11 11 9 7 7 6 4 4 4 4 4 4 5 5 6 7 7 6 6 6 7 7 6 6
6 5 6 8 16 11 12 12 10 9 9 7 8 9 14 11 12 12 12 11 11 10 9 7 7 6 6 5 5 5 4 4 4 6 6 6 6 7 6 6 5 6 6 7
9 9 6 10 13 10 11 14 16 11 8 7 7 10 14 14 13 14 13 13 12 11 8 8 8 7 7 5 5 5 4 3 4 5 6 6 6 6 6 7 5 7 6 9
10 14 13 14 12 9 10 5 7 10 12 12 11 9 9 12 15 15 13 12 11 10 9 8 8 8 6 6 5 5 4 3 3 5 5 5 5 6 6 7 8 11 12 17
Wind_Direction
19 60 52 333 223 183 154 185 242 257 160 175 222 244 205 185 185 192 203 209 213 206 172 163 173 323 328 313 313 323 349 349 350 345 339 330 327 320 314 312 320 319 319 320
38 53 327 320 341 151 144 161 227 307 152 190 253 262 220 185 197 197 198 204 204 188 179 198 205 274 307 307 321 342 352 344 343 334 321 307 310 304 305 311 311 313 320 321
119 252 325 73 52 79 84 174 226 222 93 76 330 300 194 192 184 193 201 200 194 193 196 203 217 268 300 317 335 348 340 337 334 332 328 327 311 308 322 328 317 320 321 319
71 351 64 75 54 52 343 216 162 146 108 300 352 301 266 199 203 209 205 195 192 185 178 185 204 285 319 331 340 342 335 333 334 337 340 341 344 335 330 326 321 322 319 317
59 23 55 71 8 54 219 71 125 147 166 315 296 240 287 160 239 231 211 198 190 181 172 168 164 344 353 346 341 337 335 334 336 340 338 335 330 320 321 322 319 318 317 315
128 118 94 164 322 57 125 81 69 64 74 307 222 190 278 214 219 224 199 191 183 171 157 145 102 25 349 340 339 341 343 338 336 336 333 328 323 324 327 329 326 325 321 315
359 38 31 9 66 22 57 64 13 354 354 274 177 226 254 238 212 208 192 183 172 162 155 149 74 349 333 339 347 348 346 336 332 330 327 321 318 318 321 325 326 325 323 321
10 312 346 24 95 102 49 108 126 271 277 297 289 248 260 138 38 190 165 154 151 154 154 151 146 315 325 344 349 345 339 330 327 327 325 318 318 324 321 320 320 318 317 314
64 282 345 52 104 126 101 99 142 144 308 289 282 282 298 124 101 127 139 146 162 163 161 161 180 299 341 348 343 336 329 324 323 323 324 321 327 325 322 320 318 317 316 317
117 292 302 344 97 43 80 141 97 107 316 296 293 282 266 237 227 204 190 182 177 167 165 169 197 298 343 344 332 329 322 316 314 320 326 335 327 323 323 322 323 323 321 320
104 198 310 341 201 196 133 117 112 116 161 211 290 277 226 227 213 203 200 188 178 174 174 182 205 305 347 340 332 323 317 315 317 322 325 326 323 324 325 325 325 324 322 325
102 115 290 273 242 67 176 182 155 170 225 196 229 270 250 235 231 197 184 175 170 166 168 177 186 351 344 332 324 318 313 315 317 322 326 326 325 326 327 327 327 327 328 328
134 103 353 346 343 359 214 194 167 135 133 177 213 265 187 114 205 181 168 163 161 162 168 175 184 320 319 314 312 310 311 314 317 326 327 326 326 328 328 327 328 330 331 331
112 137 187 233 255 243 247 212 169 151 190 224 230 258 274 227 219 195 175 167 164 170 175 182 202 255 288 298 300 303 309 316 326 331 328 327 326 326 325 327 330 332 334 336
111 192 247 258 261 238 244 232 199 198 207 216 246 252 270 252 216 196 175 166 169 181 189 193 201 229 267 287 296 302 310 320 329 330 330 327 324 324 326 330 332 333 337 341
107 164 321 293 227 251 264 244 218 222 224 238 265 274 270 290 147 158 170 176 185 192 193 193 199 214 245 269 287 304 311 318 326 328 325 324 328 329 331 332 334 337 338 337
139 131 10 284 301 318 279 238 188 208 212 200 228 250 185 206 196 188 186 187 190 189 188 191 197 210 230 249 272 291 301 312 325 325 321 323 325 328 329 333 337 337 333 334
138 130 131 307 353 280 248 145 177 215 244 216 240 256 213 220 199 192 181 183 185 182 182 185 188 199 216 235 265 285 302 318 325 323 319 319 322 323 323 328 332 328 323 328
137 139 126 92 309 284 293 229 181 206 277 223 226 250 156 108 72 261 203 185 181 176 173 177 181 189 200 228 259 293 312 322 325 320 316 313 313 317 321 325 324 318 320 320
57 97 119 137 219 256 256 159 159 100 282 244 200 197 155 144 190 246 182 170 161 158 158 165 170 179 201 221 240 282 306 315 314 309 306 306 308 314 313 314 313 312 314 320
130 124 157 177 228 263 252 150 140 187 252 217 184 179 169 190 205 185 151 153 153 154 158 162 170 188 204 208 216 264 288 292 294 300 303 305 308 308 304 312 308 312 320 323
174 168 189 163 203 256 194 149 189 218 213 181 190 183 186 192 142 143 154 156 157 158 160 166 177 196 205 202 207 253 272 279 296 303 305 306 306 307 320 315 308 310 313 314
198 191 184 192 217 236 177 202 218 195 201 204 196 190 172 165 171 164 165 164 166 167 170 172 181 193 210 210 208 241 262 289 305 309 306 304 306 304 307 306 304 309 308 308
234 185 189 245 261 249 226 238 243 214 216 209 189 173 170 173 172 169 168 171 172 173 175 172 177 194 212 215 219 232 262 287 300 304 305 304 305 306 309 310 308 308 307 306
208 165 203 251 269 291 263 231 234 224 213 196 180 178 180 170 170 173 174 178 179 179 174 176 186 198 208 208 223 237 251 273 294 301 302 307 309 305 308 313 307 309 301 315
188 180 186 234 227 211 249 233 200 197 204 193 177 178 181 178 175 173 177 176 175 176 172 179 191 201 204 204 222 235 242 251 277 301 309 309 308 311 316 315 317 322 329 332